Regional Weather Roundup
Issued by NWS

Home | Current Version | Previous Version | Text Only | Print | Product List | Glossary Off
Versions: 1 2 3 4 5 6 7 8 9 10 11 12 13 14 15 16 17 18 19 20 21 22 23 24 25 26 27 28 29 30 31 32 33 34 35 36 37 38 39 40 41 42 43 44 45 46 47 48 49 50

000
ASUS43 KOAX 042010
RWRNE

WEATHER ROUNDUP FOR NEBRASKA
NATIONAL WEATHER SERVICE OMAHA NE
300 PM CDT TUE AUG 04 2015

NOTES: SATELLITE DATA IS BEING USED TO AUGMENT CLOUD COVER ABOVE
       12000 FEET.
       "FAIR" INDICATES FEW OR NO CLOUDS BELOW 12,000 FEET WITH NO
       SIGNIFICANT WEATHER AND/OR OBSTRUCTIONS TO VISIBILITY.

  * THESE STATIONS DO NOT REPORT WEATHER SUCH AS RAIN...SNOW OR FOG.

NEZ001>004-019>022-054>056-042100-
NEBRASKA PANHANDLE

CITY           SKY/WX    TMP DP  RH WIND       PRES   REMARKS
SCOTTSBLUFF    PTSUNNY   79  56  45 E9        29.99S
ALLIANCE       CLOUDY    71  62  73 SE18      30.02F
CHADRON        PTSUNNY   80  60  50 S21G29    29.96R
KIMBALL        CLOUDY    75  50  40 NW9       30.05R
SIDNEY         CLOUDY    69  58  67 E10       30.06R
$$

NEZ057>060-069>072-079>082-042100-
SOUTHWEST NEBRASKA

CITY           SKY/WX    TMP DP  RH WIND       PRES   REMARKS
NORTH PLATTE   TSTM      66  64  93 W12       30.05R
IMPERIAL       CLOUDY    63  59  87 N10       29.98S
LEXINGTON      CLOUDY    71  67  87 NE6       29.96F
MCCOOK         TSTM      65  61  87 N10G30    29.97R FOG
OGALLALA       CLOUDY    66  64  95 SE6       30.00F
$$

NEZ005>010-023>029-035>040-094-042100-
NORTH CENTRAL NEBRASKA

CITY           SKY/WX    TMP DP  RH WIND       PRES   REMARKS
AINSWORTH      CLOUDY    78  63  59 E12       29.98R
BROKEN BOW     CLOUDY    78  61  55 S9        29.97R
O`NEILL        MOSUNNY   77  65  65 E9        29.98R
ORD            CLOUDY    81  63  54 S14G28    29.91S
THEDFORD       CLOUDY    72  61  68 S17G26    29.98S
$$

NEZ041-046>049-061>064-073>077-083>087-042100-
SOUTH CENTRAL NEBRASKA

CITY           SKY/WX    TMP DP  RH WIND       PRES   REMARKS
GRAND ISLAND   PTSUNNY   81  66  60 SE16      29.93F
AURORA         PTSUNNY   81  65  59 SE18      29.92F
HASTINGS       PTSUNNY   84  68  58 E17G23    29.93F
HEBRON         PTSUNNY   83  67  59 E13G18    29.92F
HOLDREGE       CLOUDY    78  67  69 SE13      29.95S
KEARNEY *      CLOUDY    79  68  69 SE14      29.95R
YORK           MOSUNNY   81  68  65 S17       29.93F
$$

NEZ011>018-030>034-042>045-042100-
NORTHEAST NEBRASKA

CITY           SKY/WX    TMP DP  RH WIND       PRES   REMARKS
NORFOLK        CLOUDY    74  64  71 E10       29.97R
ALBION         CLOUDY    76  66  72 E8        29.96R
BLAIR          CLOUDY    72  64  74 E5        29.95R
COLUMBUS *     PTSUNNY   77  66  69 NE5       29.93R
FREMONT        CLOUDY    73  65  76 NE6       29.96R
TEKAMAH        CLOUDY    74  64  71 SE6       29.97R
WAYNE          PTSUNNY   76  63  63 SE10      29.98
$$

NEZ050>053-065>068-078-088>093-042100-
SOUTHEAST NEBRASKA

CITY           SKY/WX    TMP DP  RH WIND       PRES   REMARKS
LINCOLN        PTSUNNY   85  67  54 SE14      29.92F
OMAHA EPPLEY   CLOUDY    74  66  76 SE12      29.94F
BEATRICE       CLOUDY    81  67  61 SE13      29.92F
FALLS CITY     CLOUDY    79  71  76 SE12      29.94F
NEBRASKA CITY  PTSUNNY   81  65  59 S13       29.94F
PLATTSMOUTH    PTSUNNY   80  69  69 SE8       29.93F
$$

NEZ044-045-051>053-067-042100-
OMAHA AREA

CITY           SKY/WX    TMP DP  RH WIND       PRES   REMARKS
OMAHA EPPLEY   CLOUDY    74  66  76 SE12      29.94F
BLAIR          CLOUDY    72  64  74 E5        29.95R
FREMONT        CLOUDY    73  65  76 NE6       29.96R
MILLARD        CLOUDY    79  69  72 SE9G17    29.92F
OFFUTT AFB     CLOUDY    79  70  72 SE9       29.91F
PLATTSMOUTH    PTSUNNY   80  69  69 SE8       29.93F
WAHOO          FAIR      81  69  68 SE14      29.91F
$$



USA.gov is the U.S. government's official web portal to all federal, state and local government web resources and services.